Torna al catalogo

ASTRA 2D

AttivoComunicazioniGEO
NORAD 26638·PAYLOAD·🇱🇺 Luxembourg

Lanciato Dec 20, 2000 da Guiana Space Centre

Loading…

TLE

AggiornatoSource: Space-Track

Epoca: Sep 14, 2026, 13:53 UTC

1 26638U 00081A   26257.57848103 -.00000100  00000-0  00000-0 0  9994
2 26638  10.6569  48.1191 0003723 187.4977 342.9756  0.99002942 53634

Traccia ASTRA 2D in tempo reale con AllMySat

Download on the App Store